Location: Cabri�res
(43.7840°N, 5.4986°E)
Time: 21:42:14
(UTC+00:00)

Meteor 2-3 Rocket - Pass Details

Date: 09 April 2020
Orbit: 842 x 885 km, 81.2° (Epoch: 05 June)

Event Time Altitude Azimuth Distance (km) Brightness Sun altitude
Rises 21:48:39 0° 348° (NNW) 3,475 7.8 -32.5°
Reaches altitude 10° 21:51:06 10° 347° (NNW) 2,527 6.9 -32.7°
Enters shadow 21:55:26 53° 337° (NNW) 1,060 4.4 -33.1°
